Location: Peebles
(55.6412°N, 3.1714°W)
Time: 11:40:50
(UTC+01:00)

KEPLER-1 (CASE) - Pass Details

Date: 02 July 2022
Orbit: 435 x 454 km, 97.4° (Epoch: 16 August)

Event Time Altitude Azimuth Distance (km) Brightness Sun altitude
Exits shadow 00:26:46 - 211° (SSW) 1,622 ? -10.6°
Reaches altitude 10° 00:26:57 10° 212° (SSW) 1,560 ? -10.6°
Maximum altitude 00:29:39 23° 267° (W) 1,010 ? -10.7°
Drops below altitude 10° 00:32:25 10° 321° (NW) 1,584 ? -10.7°
Sets 00:34:46 0° 337° (NNW) 2,468 ? -10.8°
